User: anonymous   Login
Location: Unspecified
(0.0000°N, 0.0000°E)
Time: 21:58:45
(UTC+00:00)
Language:

SOHLA-1 (MAIDO-1) - Orbit

View from above orbital plane
View from above orbital plane
View from above satellite
View from above satellite

Ground track
Ground track

The orbit data is extracted from the following two-line orbital elements,

1 33496U 09002E   17082.94148078 +.00000069 +00000-0 +19484-4 0  9990
2 33496 098.2994 230.9460 0005019 276.8405 194.5723 14.71670889437702
Epoch (UTC): 23 March 2017 22:35:43
Eccentricity: 0.0005019
inclination: 98.2994°
perigee height: 652 km
apogee height: 659 km
right ascension of ascending node: 230.9460°
argument of perigee: 276.8405°
revolutions per day: 14.71670889
mean anomaly at epoch: 194.5723°
orbit number at epoch: 43770

The dashed part of the orbit path shows where the satellite is in the earth's shadow,  

DLR